If you wish to contribute or participate in the discussions about articles you are invited to join SKYbrary as a registered user

 Actions

Casablanca-Anfa Airport

From SKYbrary Wiki

GMMC
Airport
ICAO: GMMC – IATA: CAS
Summary
Name Casablanca-Anfa Airport
Region Africa
Territory Morocco MA.gif
Location Casablanca, Grand Casablanca
Serving Casablanca
Elevation 61.874 m <br />203 ft <br />203 ft61.874 m <br />
Coordinates 33° 33' 24.00" N, 7° 39' 48.00" W
Runways
Designator Length Width Surface ROPS
3/21 1880 m6,167.979 ft <br /> 0 m0 ft <br /> UNK no/no


METAR
Observation GMMC 160614Z 20004KT 0200 FG BKN010 16/16 Q1011 NOSIG
Station Casablanca
Date/Time 16 October 2021 06:14:00
Wind direction 200°
Wind speed 04 kts
Lowest cloud amount broken clouds
Temperature 16°C
Dew point 16°C
Humidity 100%
QNH 1011 hPa
Weather condition n/a

Casablanca/Anfa Airport

ICAO: GMMC IATA: CAS

Description

International airport serving Casablanca, Morroco.

Climatology

Semi-arid/Dry-summer subtropical ”Mediterranean" climate (Köppen climate classification Csb/BSh) - characterized by hot, dry summers and mild winters. During the summer, subtropical high pressure cells dominate, making rainfall unlikely except for the occasional thunderstorm.

Maps

Terrain

Loading map...

Airport Layout

Loading map...


Accidents & Serious Incidents at or in vicinity of GMMC

None on SKYbrary